This is the latest recevied weather packets stored in our database for station/object KI6SYE. If no packets are shown the sender has not sent any weather packets the latest 10 day(s).
| Time | Temp. | Humidity | Pressure | Rain* | Wind** | Luminosity | Snow |
|---|---|---|---|---|---|---|---|
| 1787851144 | 28.33° C | 76% | 1012.4 hPa | 0 mm | - | 304 W/m² | - |
| 1787850839 | 28.33° C | 77% | 1012.3 hPa | 0 mm | - | 330 W/m² | - |
| 1787850535 | 28.33° C | 77% | 1012 hPa | 0 mm | - | 306 W/m² | - |
| 1787850231 | 27.78° C | 79% | 1012 hPa | 0 mm | - | 298 W/m² | - |
| 1787849931 | 27.78° C | 79% | 1012 hPa | 0 mm | - | 306 W/m² | - |
| 1787849625 | 27.78° C | 80% | 1011.7 hPa | 0 mm | - | 296 W/m² | - |
| 1787849324 | 27.78° C | 81% | 1011.5 hPa | 0 mm | - | 297 W/m² | - |
| 1787849019 | 27.78° C | 82% | 1011.8 hPa | 0 mm | - | 301 W/m² | - |
| 1787848719 | 27.22° C | 82% | 1011.4 hPa | 0 mm | - | 314 W/m² | - |
| 1787848414 | 27.22° C | 83% | 1011.5 hPa | 0 mm | - | 324 W/m² | - |
| 1787848113 | 26.67° C | 84% | 1011.6 hPa | 0 mm | - | 264 W/m² | - |
| 1787847808 | 26.67° C | 84% | 1011.6 hPa | 0 mm | - | 264 W/m² | - |
| 1787847504 | 26.67° C | 85% | 1011.5 hPa | 0 mm | - | 210 W/m² | - |
| 1787847199 | 26.11° C | 86% | 1011.7 hPa | 0 mm | - | 156 W/m² | - |
| 1787846895 | 26.11° C | 86% | 1011.4 hPa | 0 mm | - | 131 W/m² | - |
| 1787846595 | 26.11° C | 86% | 1011.4 hPa | 0 mm | - | 136 W/m² | - |
| 1787846290 | 26.11° C | 87% | 1011.4 hPa | 0 mm | - | 176 W/m² | - |
| 1787845986 | 26.11° C | 87% | 1011.3 hPa | 0 mm | - | 162 W/m² | - |
| 1787845682 | 26.11° C | 87% | 1011.3 hPa | 0 mm | - | 139 W/m² | - |
| 1787845381 | 26.11° C | 87% | 1011.5 hPa | 0 mm | - | 120 W/m² | - |
| 1787845078 | 26.11° C | 87% | 1011.6 hPa | 0 mm | - | 119 W/m² | - |
| 1787844773 | 25.56° C | 88% | 1011.8 hPa | 0 mm | - | 140 W/m² | - |
| 1787844471 | 25.56° C | 88% | 1011.9 hPa | 0 mm | - | 135 W/m² | - |
| 1787844167 | 25.56° C | 89% | 1011.7 hPa | 0 mm | - | 154 W/m² | - |
| 1787843866 | 25.56° C | 90% | 1011.8 hPa | 0 mm | - | 152 W/m² | - |
* Rain latest hour (hover to see other rain measurements)
** Current wind speed in m/s (hover to see current wind gust speed)